Location: Ailingen
(47.6833°N, 9.5000°E)
Time: 08:30:11
(UTC+00:00)

Cosmos 1833 Rocket - Pass Details

Date: 18 November 2025
Orbit: 829 x 840 km, 71.0° (Epoch: 13 December)

Event Time Altitude Azimuth Distance (km) Brightness Sun altitude
Rises 16:22:30 0° 329° (NNW) 3,405 6.0 -7.0°
Reaches altitude 10° 16:24:59 10° 326° (NW) 2,466 5.3 -7.4°
Maximum altitude 16:30:31 58° 249° (WSW) 978 3.5 -8.3°
Drops below altitude 10° 16:36:01 10° 171° (S) 2,448 5.2 -9.2°
Sets 16:38:29 0° 168° (SSE) 3,377 5.9 -9.6°
